Year,Month,Day,Hour,Minute,Value (Times are PST for insolation in W/m^2)
2017,03,26,00,00,0.00
2017,03,26,00,01,0.00
2017,03,26,00,02,0.00
2017,03,26,00,03,0.00
2017,03,26,00,04,0.00
2017,03,26,00,05,0.00
2017,03,26,00,06,0.00
2017,03,26,00,07,0.00
2017,03,26,00,08,0.00
2017,03,26,00,09,0.00
2017,03,26,00,10,0.00
2017,03,26,00,11,0.00
2017,03,26,00,12,0.00
2017,03,26,00,13,0.00
2017,03,26,00,14,0.00
2017,03,26,00,15,0.00
2017,03,26,00,16,0.00
2017,03,26,00,17,0.00
2017,03,26,00,18,0.00
2017,03,26,00,19,0.00
2017,03,26,00,20,0.00
2017,03,26,00,21,0.00
2017,03,26,00,22,0.00
2017,03,26,00,23,0.00
2017,03,26,00,24,0.00
2017,03,26,00,25,0.00
2017,03,26,00,26,0.00
2017,03,26,00,27,0.00
2017,03,26,00,28,0.00
2017,03,26,00,29,0.00
2017,03,26,00,30,0.00
2017,03,26,00,31,0.00
2017,03,26,00,32,0.00
2017,03,26,00,33,0.00
2017,03,26,00,34,0.00
2017,03,26,00,35,0.00
2017,03,26,00,36,0.00
2017,03,26,00,37,0.00
2017,03,26,00,38,0.00
2017,03,26,00,39,0.00
2017,03,26,00,40,0.00
2017,03,26,00,41,0.00
2017,03,26,00,42,0.00
2017,03,26,00,43,0.00
2017,03,26,00,44,0.00
2017,03,26,00,45,0.00
2017,03,26,00,46,0.00
2017,03,26,00,47,0.00
2017,03,26,00,48,0.00
2017,03,26,00,49,0.00
2017,03,26,00,50,0.00
2017,03,26,00,51,0.00
2017,03,26,00,52,0.00
2017,03,26,00,53,0.00
2017,03,26,00,54,0.00
2017,03,26,00,55,0.00
2017,03,26,00,56,0.00
2017,03,26,00,57,0.00
2017,03,26,00,58,0.00
2017,03,26,00,59,0.00
2017,03,26,01,00,0.00
2017,03,26,01,01,0.00
2017,03,26,01,02,0.00
2017,03,26,01,03,0.00
2017,03,26,01,04,0.00
2017,03,26,01,05,0.00
2017,03,26,01,06,0.00
2017,03,26,01,07,0.00
2017,03,26,01,08,0.00
2017,03,26,01,09,0.00
2017,03,26,01,10,0.00
2017,03,26,01,11,0.00
2017,03,26,01,12,0.00
2017,03,26,01,13,0.00
2017,03,26,01,14,0.00
2017,03,26,01,15,0.00
2017,03,26,01,16,0.00
2017,03,26,01,17,0.00
2017,03,26,01,18,0.00
2017,03,26,01,19,0.00
2017,03,26,01,20,0.00
2017,03,26,01,21,0.00
2017,03,26,01,22,0.00
2017,03,26,01,23,0.00
2017,03,26,01,24,0.00
2017,03,26,01,25,0.00
2017,03,26,01,26,0.00
2017,03,26,01,27,0.00
2017,03,26,01,28,0.00
2017,03,26,01,29,0.00
2017,03,26,01,30,0.00
2017,03,26,01,31,0.00
2017,03,26,01,32,0.00
2017,03,26,01,33,0.00
2017,03,26,01,34,0.00
2017,03,26,01,35,0.00
2017,03,26,01,36,0.00
2017,03,26,01,37,0.00
2017,03,26,01,38,0.00
2017,03,26,01,39,0.00
2017,03,26,01,40,0.00
2017,03,26,01,41,0.00
2017,03,26,01,42,0.00
2017,03,26,01,43,0.00
2017,03,26,01,44,0.00
2017,03,26,01,45,0.00
2017,03,26,01,46,0.00
2017,03,26,01,47,0.00
2017,03,26,01,48,0.00
2017,03,26,01,49,0.00
2017,03,26,01,50,0.00
2017,03,26,01,51,0.00
2017,03,26,01,52,0.00
2017,03,26,01,53,0.00
2017,03,26,01,54,0.00
2017,03,26,01,55,0.00
2017,03,26,01,56,0.00
2017,03,26,01,57,0.00
2017,03,26,01,58,0.00
2017,03,26,01,59,0.00
2017,03,26,02,00,0.00
2017,03,26,02,01,0.00
2017,03,26,02,02,0.00
2017,03,26,02,03,0.00
2017,03,26,02,04,0.00
2017,03,26,02,05,0.00
2017,03,26,02,06,0.00
2017,03,26,02,07,0.00
2017,03,26,02,08,0.00
2017,03,26,02,09,0.00
2017,03,26,02,10,0.00
2017,03,26,02,11,0.00
2017,03,26,02,12,0.00
2017,03,26,02,13,0.00
2017,03,26,02,14,0.00
2017,03,26,02,15,0.00
2017,03,26,02,16,0.00
2017,03,26,02,17,0.00
2017,03,26,02,18,0.00
2017,03,26,02,19,0.00
2017,03,26,02,20,0.00
2017,03,26,02,21,0.00
2017,03,26,02,22,0.00
2017,03,26,02,23,0.00
2017,03,26,02,24,0.00
2017,03,26,02,25,0.00
2017,03,26,02,26,0.00
2017,03,26,02,27,0.00
2017,03,26,02,28,0.00
2017,03,26,02,29,0.00
2017,03,26,02,30,0.00
2017,03,26,02,31,0.00
2017,03,26,02,32,0.00
2017,03,26,02,33,0.00
2017,03,26,02,34,0.00
2017,03,26,02,35,0.00
2017,03,26,02,36,0.00
2017,03,26,02,37,0.00
2017,03,26,02,38,0.00
2017,03,26,02,39,0.00
2017,03,26,02,40,0.00
2017,03,26,02,41,0.00
2017,03,26,02,42,0.00
2017,03,26,02,43,0.00
2017,03,26,02,44,0.00
2017,03,26,02,45,0.00
2017,03,26,02,46,0.00
2017,03,26,02,47,0.00
2017,03,26,02,48,0.00
2017,03,26,02,49,0.00
2017,03,26,02,50,0.00
2017,03,26,02,51,0.00
2017,03,26,02,52,0.00
2017,03,26,02,53,0.00
2017,03,26,02,54,0.00
2017,03,26,02,55,0.00
2017,03,26,02,56,0.00
2017,03,26,02,57,0.00
2017,03,26,02,58,0.00
2017,03,26,02,59,0.00
2017,03,26,03,00,0.00
2017,03,26,03,01,0.00
2017,03,26,03,02,0.00
2017,03,26,03,03,0.00
2017,03,26,03,04,0.00
2017,03,26,03,05,0.00
2017,03,26,03,06,0.00
2017,03,26,03,07,0.00
2017,03,26,03,08,0.00
2017,03,26,03,09,0.00
2017,03,26,03,10,0.00
2017,03,26,03,11,0.00
2017,03,26,03,12,0.00
2017,03,26,03,13,0.00
2017,03,26,03,14,0.00
2017,03,26,03,15,0.00
2017,03,26,03,16,0.00
2017,03,26,03,17,0.00
2017,03,26,03,18,0.00
2017,03,26,03,19,0.00
2017,03,26,03,20,0.00
2017,03,26,03,21,0.00
2017,03,26,03,22,0.00
2017,03,26,03,23,0.00
2017,03,26,03,24,0.00
2017,03,26,03,25,0.00
2017,03,26,03,26,0.00
2017,03,26,03,27,0.00
2017,03,26,03,28,0.00
2017,03,26,03,29,0.00
2017,03,26,03,30,0.00
2017,03,26,03,31,0.00
2017,03,26,03,32,0.00
2017,03,26,03,33,0.00
2017,03,26,03,34,0.00
2017,03,26,03,35,0.00
2017,03,26,03,36,0.00
2017,03,26,03,37,0.00
2017,03,26,03,38,0.00
2017,03,26,03,39,0.00
2017,03,26,03,40,0.00
2017,03,26,03,41,0.00
2017,03,26,03,42,0.00
2017,03,26,03,43,0.00
2017,03,26,03,44,0.00
2017,03,26,03,45,0.00
2017,03,26,03,46,0.00
2017,03,26,03,47,0.00
2017,03,26,03,48,0.00
2017,03,26,03,49,0.00
2017,03,26,03,50,0.00
2017,03,26,03,51,0.00
2017,03,26,03,52,0.00
2017,03,26,03,53,0.00
2017,03,26,03,54,0.00
2017,03,26,03,55,0.00
2017,03,26,03,56,0.00
2017,03,26,03,57,0.00
2017,03,26,03,58,0.00
2017,03,26,03,59,0.00
2017,03,26,04,00,0.00
2017,03,26,04,01,0.00
2017,03,26,04,02,0.00
2017,03,26,04,03,0.00
2017,03,26,04,04,0.00
2017,03,26,04,05,0.00
2017,03,26,04,06,0.00
2017,03,26,04,07,0.00
2017,03,26,04,08,0.00
2017,03,26,04,09,0.00
2017,03,26,04,10,0.00
2017,03,26,04,11,0.00
2017,03,26,04,12,0.00
2017,03,26,04,13,0.00
2017,03,26,04,14,0.00
2017,03,26,04,15,0.00
2017,03,26,04,16,0.00
2017,03,26,04,17,0.00
2017,03,26,04,18,0.00
2017,03,26,04,19,0.00
2017,03,26,04,20,0.00
2017,03,26,04,21,0.00
2017,03,26,04,22,0.00
2017,03,26,04,23,0.00
2017,03,26,04,24,0.00
2017,03,26,04,25,0.00
2017,03,26,04,26,0.00
2017,03,26,04,27,0.00
2017,03,26,04,28,0.00
2017,03,26,04,29,0.00
2017,03,26,04,30,0.00
2017,03,26,04,31,0.00
2017,03,26,04,32,0.00
2017,03,26,04,33,0.00
2017,03,26,04,34,0.00
2017,03,26,04,35,0.00
2017,03,26,04,36,0.00
2017,03,26,04,37,0.00
2017,03,26,04,38,0.00
2017,03,26,04,39,0.00
2017,03,26,04,40,0.00
2017,03,26,04,41,0.00
2017,03,26,04,42,0.00
2017,03,26,04,43,0.00
2017,03,26,04,44,0.00
2017,03,26,04,45,0.00
2017,03,26,04,46,0.00
2017,03,26,04,47,0.00
2017,03,26,04,48,0.00
2017,03,26,04,49,0.00
2017,03,26,04,50,0.00
2017,03,26,04,51,0.00
2017,03,26,04,52,0.00
2017,03,26,04,53,0.00
2017,03,26,04,54,0.00
2017,03,26,04,55,0.00
2017,03,26,04,56,0.00
2017,03,26,04,57,0.00
2017,03,26,04,58,0.00
2017,03,26,04,59,0.00
2017,03,26,05,00,0.00
2017,03,26,05,01,0.00
2017,03,26,05,02,0.00
2017,03,26,05,03,0.00
2017,03,26,05,04,0.00
2017,03,26,05,05,0.00
2017,03,26,05,06,0.00
2017,03,26,05,07,0.00
2017,03,26,05,08,0.00
2017,03,26,05,09,0.00
2017,03,26,05,10,0.00
2017,03,26,05,11,0.00
2017,03,26,05,12,0.00
2017,03,26,05,13,0.00
2017,03,26,05,14,0.00
2017,03,26,05,15,0.00
2017,03,26,05,16,0.00
2017,03,26,05,17,0.00
2017,03,26,05,18,0.00
2017,03,26,05,19,0.00
2017,03,26,05,20,0.00
2017,03,26,05,21,0.00
2017,03,26,05,22,0.00
2017,03,26,05,23,0.00
2017,03,26,05,24,0.00
2017,03,26,05,25,0.00
2017,03,26,05,26,0.00
2017,03,26,05,27,0.00
2017,03,26,05,28,0.00
2017,03,26,05,29,0.00
2017,03,26,05,30,0.00
2017,03,26,05,31,0.00
2017,03,26,05,32,0.00
2017,03,26,05,33,0.00
2017,03,26,05,34,0.00
2017,03,26,05,35,0.00
2017,03,26,05,36,0.00
2017,03,26,05,37,0.00
2017,03,26,05,38,0.00
2017,03,26,05,39,0.00
2017,03,26,05,40,0.00
2017,03,26,05,41,0.00
2017,03,26,05,42,0.00
2017,03,26,05,43,0.00
2017,03,26,05,44,0.00
2017,03,26,05,45,0.00
2017,03,26,05,46,0.00
2017,03,26,05,47,0.00
2017,03,26,05,48,0.00
2017,03,26,05,49,0.00
2017,03,26,05,50,0.00
2017,03,26,05,51,0.00
2017,03,26,05,52,0.00
2017,03,26,05,53,0.00
2017,03,26,05,54,0.00
2017,03,26,05,55,0.00
2017,03,26,05,56,0.00
2017,03,26,05,57,0.00
2017,03,26,05,58,0.00
2017,03,26,05,59,0.00
2017,03,26,06,00,0.00
2017,03,26,06,01,0.00
2017,03,26,06,02,0.00
2017,03,26,06,03,0.00
2017,03,26,06,04,0.00
2017,03,26,06,05,0.00
2017,03,26,06,06,0.00
2017,03,26,06,07,0.00
2017,03,26,06,08,0.00
2017,03,26,06,09,0.00
2017,03,26,06,10,0.00
2017,03,26,06,11,0.00
2017,03,26,06,12,0.00
2017,03,26,06,13,0.00
2017,03,26,06,14,0.00
2017,03,26,06,15,0.00
2017,03,26,06,16,0.00
2017,03,26,06,17,0.00
2017,03,26,06,18,0.00
2017,03,26,06,19,0.00
2017,03,26,06,20,0.00
2017,03,26,06,21,0.00
2017,03,26,06,22,0.00
2017,03,26,06,23,0.00
2017,03,26,06,24,0.00
2017,03,26,06,25,0.00
2017,03,26,06,26,0.00
2017,03,26,06,27,0.00
2017,03,26,06,28,0.00
2017,03,26,06,29,0.00
2017,03,26,06,30,0.00
2017,03,26,06,31,0.00
2017,03,26,06,32,0.00
2017,03,26,06,33,0.00
2017,03,26,06,34,0.00
2017,03,26,06,35,0.00
2017,03,26,06,36,0.00
2017,03,26,06,37,0.00
2017,03,26,06,38,0.00
2017,03,26,06,39,0.00
2017,03,26,06,40,0.00
2017,03,26,06,41,0.00
2017,03,26,06,42,0.00
2017,03,26,06,43,0.00
2017,03,26,06,44,0.00
2017,03,26,06,45,0.00
2017,03,26,06,46,0.00
2017,03,26,06,47,0.00
2017,03,26,06,48,0.00
2017,03,26,06,49,0.00
2017,03,26,06,50,0.00
2017,03,26,06,51,0.00
2017,03,26,06,52,0.00
2017,03,26,06,53,0.00
2017,03,26,06,54,0.00
2017,03,26,06,55,0.00
2017,03,26,06,56,0.00
2017,03,26,06,57,0.00
2017,03,26,06,58,0.00
2017,03,26,06,59,0.00
2017,03,26,07,00,0.00
2017,03,26,07,01,0.00
2017,03,26,07,02,0.00
2017,03,26,07,03,0.00
2017,03,26,07,04,0.00
2017,03,26,07,05,0.00
2017,03,26,07,06,0.00
2017,03,26,07,07,0.00
2017,03,26,07,08,0.00
2017,03,26,07,09,0.00
2017,03,26,07,10,0.00
2017,03,26,07,11,0.00
2017,03,26,07,12,0.00
2017,03,26,07,13,0.00
2017,03,26,07,14,0.00
2017,03,26,07,15,0.00
2017,03,26,07,16,0.00
2017,03,26,07,17,0.00
2017,03,26,07,18,0.00
2017,03,26,07,19,0.00
2017,03,26,07,20,0.00
2017,03,26,07,21,0.00
2017,03,26,07,22,0.00
2017,03,26,07,23,0.00
2017,03,26,07,24,0.00
2017,03,26,07,25,0.00
2017,03,26,07,26,0.00
2017,03,26,07,27,0.00
2017,03,26,07,28,2.10
2017,03,26,07,29,5.00
2017,03,26,07,30,5.00
2017,03,26,07,31,5.00
2017,03,26,07,32,5.00
2017,03,26,07,33,6.80
2017,03,26,07,34,7.00
2017,03,26,07,35,7.00
2017,03,26,07,36,7.00
2017,03,26,07,37,7.80
2017,03,26,07,38,9.00
2017,03,26,07,39,9.00
2017,03,26,07,40,9.00
2017,03,26,07,41,9.00
2017,03,26,07,42,9.20
2017,03,26,07,43,11.00
2017,03,26,07,44,11.00
2017,03,26,07,45,11.00
2017,03,26,07,46,11.50
2017,03,26,07,47,12.00
2017,03,26,07,48,13.40
2017,03,26,07,49,14.00
2017,03,26,07,50,14.00
2017,03,26,07,51,14.00
2017,03,26,07,52,14.00
2017,03,26,07,53,14.00
2017,03,26,07,54,14.00
2017,03,26,07,55,14.00
2017,03,26,07,56,14.00
2017,03,26,07,57,14.00
2017,03,26,07,58,15.70
2017,03,26,07,59,16.00
2017,03,26,08,00,16.00
2017,03,26,08,01,16.60
2017,03,26,08,02,18.00
2017,03,26,08,03,18.50
2017,03,26,08,04,19.00
2017,03,26,08,05,19.00
2017,03,26,08,06,20.60
2017,03,26,08,07,21.00
2017,03,26,08,08,21.00
2017,03,26,08,09,21.00
2017,03,26,08,10,21.00
2017,03,26,08,11,21.00
2017,03,26,08,12,21.00
2017,03,26,08,13,21.00
2017,03,26,08,14,21.00
2017,03,26,08,15,21.00
2017,03,26,08,16,21.00
2017,03,26,08,17,21.00
2017,03,26,08,18,21.50
2017,03,26,08,19,23.00
2017,03,26,08,20,23.00
2017,03,26,08,21,23.00
2017,03,26,08,22,23.00
2017,03,26,08,23,23.00
2017,03,26,08,24,24.80
2017,03,26,08,25,25.00
2017,03,26,08,26,25.00
2017,03,26,08,27,25.00
2017,03,26,08,28,25.00
2017,03,26,08,29,25.50
2017,03,26,08,30,26.00
2017,03,26,08,31,26.00
2017,03,26,08,32,26.00
2017,03,26,08,33,27.80
2017,03,26,08,34,28.20
2017,03,26,08,35,30.00
2017,03,26,08,36,30.00
2017,03,26,08,37,30.00
2017,03,26,08,38,30.00
2017,03,26,08,39,30.00
2017,03,26,08,40,30.00
2017,03,26,08,41,30.00
2017,03,26,08,42,30.10
2017,03,26,08,43,32.00
2017,03,26,08,44,32.00
2017,03,26,08,45,32.00
2017,03,26,08,46,32.50
2017,03,26,08,47,33.00
2017,03,26,08,48,34.40
2017,03,26,08,49,35.00
2017,03,26,08,50,36.80
2017,03,26,08,51,37.20
2017,03,26,08,52,39.00
2017,03,26,08,53,39.30
2017,03,26,08,54,40.00
2017,03,26,08,55,40.00
2017,03,26,08,56,40.00
2017,03,26,08,57,39.30
2017,03,26,08,58,35.60
2017,03,26,08,59,35.20
2017,03,26,09,00,39.20
2017,03,26,09,01,41.40
2017,03,26,09,02,46.30
2017,03,26,09,03,47.00
2017,03,26,09,04,48.10
2017,03,26,09,05,49.00
2017,03,26,09,06,49.00
2017,03,26,09,07,50.70
2017,03,26,09,08,51.00
2017,03,26,09,09,51.00
2017,03,26,09,10,51.00
2017,03,26,09,11,51.00
2017,03,26,09,12,50.00
2017,03,26,09,13,49.00
2017,03,26,09,14,49.00
2017,03,26,09,15,50.70
2017,03,26,09,16,51.00
2017,03,26,09,17,53.00
2017,03,26,09,18,53.00
2017,03,26,09,19,53.00
2017,03,26,09,20,53.00
2017,03,26,09,21,53.00
2017,03,26,09,22,53.60
2017,03,26,09,23,54.00
2017,03,26,09,24,54.00
2017,03,26,09,25,55.90
2017,03,26,09,26,56.00
2017,03,26,09,27,56.00
2017,03,26,09,28,56.00
2017,03,26,09,29,56.00
2017,03,26,09,30,56.00
2017,03,26,09,31,56.00
2017,03,26,09,32,56.00
2017,03,26,09,33,57.80
2017,03,26,09,34,58.00
2017,03,26,09,35,58.00
2017,03,26,09,36,58.60
2017,03,26,09,37,60.00
2017,03,26,09,38,60.00
2017,03,26,09,39,61.20
2017,03,26,09,40,62.00
2017,03,26,09,41,62.00
2017,03,26,09,42,62.00
2017,03,26,09,43,62.00
2017,03,26,09,44,62.00
2017,03,26,09,45,62.00
2017,03,26,09,46,62.00
2017,03,26,09,47,62.00
2017,03,26,09,48,62.00
2017,03,26,09,49,62.00
2017,03,26,09,50,62.00
2017,03,26,09,51,62.00
2017,03,26,09,52,62.00
2017,03,26,09,53,62.00
2017,03,26,09,54,62.40
2017,03,26,09,55,63.00
2017,03,26,09,56,63.00
2017,03,26,09,57,63.00
2017,03,26,09,58,63.00
2017,03,26,09,59,63.00
2017,03,26,10,00,62.00
2017,03,26,10,01,62.00
2017,03,26,10,02,62.00
2017,03,26,10,03,62.00
2017,03,26,10,04,62.00
2017,03,26,10,05,62.00
2017,03,26,10,06,62.00
2017,03,26,10,07,62.00
2017,03,26,10,08,62.90
2017,03,26,10,09,63.40
2017,03,26,10,10,65.60
2017,03,26,10,11,67.00
2017,03,26,10,12,68.00
2017,03,26,10,13,69.60
2017,03,26,10,14,71.40
2017,03,26,10,15,72.00
2017,03,26,10,16,73.80
2017,03,26,10,17,76.00
2017,03,26,10,18,76.00
2017,03,26,10,19,76.30
2017,03,26,10,20,77.00
2017,03,26,10,21,76.50
2017,03,26,10,22,72.10
2017,03,26,10,23,69.20
2017,03,26,10,24,69.00
2017,03,26,10,25,69.10
2017,03,26,10,26,70.00
2017,03,26,10,27,69.40
2017,03,26,10,28,67.70
2017,03,26,10,29,70.30
2017,03,26,10,30,74.20
2017,03,26,10,31,72.10
2017,03,26,10,32,74.50
2017,03,26,10,33,74.20
2017,03,26,10,34,70.60
2017,03,26,10,35,76.80
2017,03,26,10,36,77.50
2017,03,26,10,37,81.00
2017,03,26,10,38,83.50
2017,03,26,10,39,92.30
2017,03,26,10,40,97.00
2017,03,26,10,41,97.00
2017,03,26,10,42,93.40
2017,03,26,10,43,105.00
2017,03,26,10,44,107.10
2017,03,26,10,45,116.60
2017,03,26,10,46,119.30
2017,03,26,10,47,118.20
2017,03,26,10,48,116.00
2017,03,26,10,49,121.20
2017,03,26,10,50,121.30
2017,03,26,10,51,124.60
2017,03,26,10,52,119.10
2017,03,26,10,53,113.10
2017,03,26,10,54,114.40
2017,03,26,10,55,109.00
2017,03,26,10,56,102.90
2017,03,26,10,57,100.70
2017,03,26,10,58,98.80
2017,03,26,10,59,92.10
2017,03,26,11,00,90.80
2017,03,26,11,01,97.40
2017,03,26,11,02,97.10
2017,03,26,11,03,100.30
2017,03,26,11,04,98.00
2017,03,26,11,05,96.10
2017,03,26,11,06,93.60
2017,03,26,11,07,96.40
2017,03,26,11,08,85.10
2017,03,26,11,09,93.60
2017,03,26,11,10,95.50
2017,03,26,11,11,95.70
2017,03,26,11,12,102.70
2017,03,26,11,13,106.80
2017,03,26,11,14,121.20
2017,03,26,11,15,109.20
2017,03,26,11,16,111.70
2017,03,26,11,17,146.00
2017,03,26,11,18,135.60
2017,03,26,11,19,130.00
2017,03,26,11,20,132.10
2017,03,26,11,21,132.60
2017,03,26,11,22,134.30
2017,03,26,11,23,146.80
2017,03,26,11,24,131.80
2017,03,26,11,25,137.80
2017,03,26,11,26,146.10
2017,03,26,11,27,165.80
2017,03,26,11,28,172.60
2017,03,26,11,29,185.10
2017,03,26,11,30,187.20
2017,03,26,11,31,186.90
2017,03,26,11,32,181.20
2017,03,26,11,33,179.00
2017,03,26,11,34,153.10
2017,03,26,11,35,164.60
2017,03,26,11,36,156.90
2017,03,26,11,37,155.10
2017,03,26,11,38,159.70
2017,03,26,11,39,159.00
2017,03,26,11,40,167.60
2017,03,26,11,41,160.20
2017,03,26,11,42,191.50
2017,03,26,11,43,194.10
2017,03,26,11,44,204.00
2017,03,26,11,45,204.60
2017,03,26,11,46,201.30
2017,03,26,11,47,201.00
2017,03,26,11,48,213.60
2017,03,26,11,49,218.00
2017,03,26,11,50,214.00
2017,03,26,11,51,208.90
2017,03,26,11,52,203.30
2017,03,26,11,53,194.40
2017,03,26,11,54,184.10
2017,03,26,11,55,180.20
2017,03,26,11,56,179.00
2017,03,26,11,57,180.30
2017,03,26,11,58,182.50
2017,03,26,11,59,183.00
2017,03,26,12,00,182.80
2017,03,26,12,01,180.00
2017,03,26,12,02,174.80
2017,03,26,12,03,169.50
2017,03,26,12,04,166.00
2017,03,26,12,05,165.00
2017,03,26,12,06,166.40
2017,03,26,12,07,170.20
2017,03,26,12,08,175.50
2017,03,26,12,09,178.60
2017,03,26,12,10,195.10
2017,03,26,12,11,205.10
2017,03,26,12,12,214.90
2017,03,26,12,13,222.80
2017,03,26,12,14,227.60
2017,03,26,12,15,232.70
2017,03,26,12,16,235.60
2017,03,26,12,17,236.20
2017,03,26,12,18,241.40
2017,03,26,12,19,246.10
2017,03,26,12,20,256.60
2017,03,26,12,21,264.50
2017,03,26,12,22,268.20
2017,03,26,12,23,269.00
2017,03,26,12,24,265.10
2017,03,26,12,25,254.60
2017,03,26,12,26,239.00
2017,03,26,12,27,237.50
2017,03,26,12,28,231.00
2017,03,26,12,29,229.00
2017,03,26,12,30,229.50
2017,03,26,12,31,230.00
2017,03,26,12,32,234.20
2017,03,26,12,33,238.60
2017,03,26,12,34,233.00
2017,03,26,12,35,240.70
2017,03,26,12,36,253.80
2017,03,26,12,37,263.00
2017,03,26,12,38,259.60
2017,03,26,12,39,269.50
2017,03,26,12,40,312.90
2017,03,26,12,41,336.50
2017,03,26,12,42,344.10
2017,03,26,12,43,364.60
2017,03,26,12,44,330.90
2017,03,26,12,45,302.40
2017,03,26,12,46,347.20
2017,03,26,12,47,365.60
2017,03,26,12,48,376.60
2017,03,26,12,49,397.00
2017,03,26,12,50,348.80
2017,03,26,12,51,330.60
2017,03,26,12,52,282.20
2017,03,26,12,53,304.80
2017,03,26,12,54,285.60
2017,03,26,12,55,290.40
2017,03,26,12,56,302.10
2017,03,26,12,57,306.80
2017,03,26,12,58,313.60
2017,03,26,12,59,347.50
2017,03,26,13,00,327.70
2017,03,26,13,01,322.40
2017,03,26,13,02,368.20
2017,03,26,13,03,381.00
2017,03,26,13,04,368.00
2017,03,26,13,05,347.00
2017,03,26,13,06,340.30
2017,03,26,13,07,364.60
2017,03,26,13,08,388.10
2017,03,26,13,09,399.20
2017,03,26,13,10,401.40
2017,03,26,13,11,405.90
2017,03,26,13,12,410.20
2017,03,26,13,13,398.70
2017,03,26,13,14,384.80
2017,03,26,13,15,370.70
2017,03,26,13,16,368.70
2017,03,26,13,17,380.40
2017,03,26,13,18,392.70
2017,03,26,13,19,400.80
2017,03,26,13,20,405.30
2017,03,26,13,21,388.60
2017,03,26,13,22,355.90
2017,03,26,13,23,318.50
2017,03,26,13,24,281.00
2017,03,26,13,25,246.80
2017,03,26,13,26,232.20
2017,03,26,13,27,235.80
2017,03,26,13,28,246.60
2017,03,26,13,29,261.80
2017,03,26,13,30,279.60
2017,03,26,13,31,289.20
2017,03,26,13,32,282.30
2017,03,26,13,33,276.60
2017,03,26,13,34,280.80
2017,03,26,13,35,288.90
2017,03,26,13,36,295.80
2017,03,26,13,37,301.40
2017,03,26,13,38,299.20
2017,03,26,13,39,290.80
2017,03,26,13,40,285.70
2017,03,26,13,41,287.30
2017,03,26,13,42,295.60
2017,03,26,13,43,303.60
2017,03,26,13,44,303.50
2017,03,26,13,45,301.90
2017,03,26,13,46,306.60
2017,03,26,13,47,311.90
2017,03,26,13,48,311.90
2017,03,26,13,49,308.90
2017,03,26,13,50,304.80
2017,03,26,13,51,299.70
2017,03,26,13,52,302.70
2017,03,26,13,53,310.80
2017,03,26,13,54,319.20
2017,03,26,13,55,322.40
2017,03,26,13,56,322.50
2017,03,26,13,57,315.70
2017,03,26,13,58,308.90
2017,03,26,13,59,304.60
2017,03,26,14,00,304.00
2017,03,26,14,01,304.30
2017,03,26,14,02,308.50
2017,03,26,14,03,323.00
2017,03,26,14,04,343.20
2017,03,26,14,05,346.00
2017,03,26,14,06,322.80
2017,03,26,14,07,294.20
2017,03,26,14,08,273.60
2017,03,26,14,09,259.90
2017,03,26,14,10,251.60
2017,03,26,14,11,244.80
2017,03,26,14,12,241.00
2017,03,26,14,13,242.00
2017,03,26,14,14,243.60
2017,03,26,14,15,245.40
2017,03,26,14,16,246.00
2017,03,26,14,17,246.00
2017,03,26,14,18,242.60
2017,03,26,14,19,238.60
2017,03,26,14,20,237.60
2017,03,26,14,21,241.80
2017,03,26,14,22,252.30
2017,03,26,14,23,269.70
2017,03,26,14,24,288.00
2017,03,26,14,25,308.10
2017,03,26,14,26,332.00
2017,03,26,14,27,353.20
2017,03,26,14,28,359.20
2017,03,26,14,29,358.80
2017,03,26,14,30,361.00
2017,03,26,14,31,351.30
2017,03,26,14,32,343.70
2017,03,26,14,33,350.10
2017,03,26,14,34,352.90
2017,03,26,14,35,396.90
2017,03,26,14,36,380.00
2017,03,26,14,37,391.30
2017,03,26,14,38,401.10
2017,03,26,14,39,412.00
2017,03,26,14,40,393.60
2017,03,26,14,41,359.60
2017,03,26,14,42,335.10
2017,03,26,14,43,314.90
2017,03,26,14,44,305.00
2017,03,26,14,45,309.20
2017,03,26,14,46,296.60
2017,03,26,14,47,274.00
2017,03,26,14,48,251.60
2017,03,26,14,49,227.70
2017,03,26,14,50,208.80
2017,03,26,14,51,194.10
2017,03,26,14,52,180.90
2017,03,26,14,53,172.90
2017,03,26,14,54,165.90
2017,03,26,14,55,161.90
2017,03,26,14,56,158.20
2017,03,26,14,57,154.30
2017,03,26,14,58,151.60
2017,03,26,14,59,152.60
2017,03,26,15,00,154.80
2017,03,26,15,01,155.00
2017,03,26,15,02,154.20
2017,03,26,15,03,148.90
2017,03,26,15,04,141.90
2017,03,26,15,05,136.80
2017,03,26,15,06,135.00
2017,03,26,15,07,135.00
2017,03,26,15,08,136.70
2017,03,26,15,09,139.00
2017,03,26,15,10,141.10
2017,03,26,15,11,142.00
2017,03,26,15,12,141.60
2017,03,26,15,13,139.20
2017,03,26,15,14,135.30
2017,03,26,15,15,132.60
2017,03,26,15,16,132.00
2017,03,26,15,17,133.70
2017,03,26,15,18,139.30
2017,03,26,15,19,143.20
2017,03,26,15,20,149.70
2017,03,26,15,21,155.10
2017,03,26,15,22,160.00
2017,03,26,15,23,163.90
2017,03,26,15,24,168.00
2017,03,26,15,25,173.20
2017,03,26,15,26,178.80
2017,03,26,15,27,185.50
2017,03,26,15,28,188.40
2017,03,26,15,29,190.00
2017,03,26,15,30,188.10
2017,03,26,15,31,185.40
2017,03,26,15,32,183.80
2017,03,26,15,33,180.00
2017,03,26,15,34,176.30
2017,03,26,15,35,168.70
2017,03,26,15,36,161.70
2017,03,26,15,37,155.20
2017,03,26,15,38,150.20
2017,03,26,15,39,145.10
2017,03,26,15,40,144.00
2017,03,26,15,41,144.00
2017,03,26,15,42,144.00
2017,03,26,15,43,145.80
2017,03,26,15,44,146.20
2017,03,26,15,45,148.00
2017,03,26,15,46,148.00
2017,03,26,15,47,148.40
2017,03,26,15,48,149.00
2017,03,26,15,49,149.00
2017,03,26,15,50,148.30
2017,03,26,15,51,148.00
2017,03,26,15,52,148.90
2017,03,26,15,53,148.90
2017,03,26,15,54,148.00
2017,03,26,15,55,148.00
2017,03,26,15,56,148.40
2017,03,26,15,57,149.00
2017,03,26,15,58,148.40
2017,03,26,15,59,148.00
2017,03,26,16,00,146.20
2017,03,26,16,01,146.00
2017,03,26,16,02,146.40
2017,03,26,16,03,149.00
2017,03,26,16,04,153.10
2017,03,26,16,05,159.10
2017,03,26,16,06,167.90
2017,03,26,16,07,178.00
2017,03,26,16,08,188.60
2017,03,26,16,09,196.90
2017,03,26,16,10,202.30
2017,03,26,16,11,204.50
2017,03,26,16,12,206.40
2017,03,26,16,13,207.90
2017,03,26,16,14,209.00
2017,03,26,16,15,210.30
2017,03,26,16,16,211.00
2017,03,26,16,17,207.40
2017,03,26,16,18,205.70
2017,03,26,16,19,201.50
2017,03,26,16,20,197.20
2017,03,26,16,21,191.80
2017,03,26,16,22,189.00
2017,03,26,16,23,186.80
2017,03,26,16,24,186.00
2017,03,26,16,25,183.40
2017,03,26,16,26,181.20
2017,03,26,16,27,173.70
2017,03,26,16,28,172.00
2017,03,26,16,29,172.70
2017,03,26,16,30,174.80
2017,03,26,16,31,176.00
2017,03,26,16,32,176.00
2017,03,26,16,33,174.50
2017,03,26,16,34,172.40
2017,03,26,16,35,171.90
2017,03,26,16,36,170.70
2017,03,26,16,37,168.50
2017,03,26,16,38,167.00
2017,03,26,16,39,166.00
2017,03,26,16,40,165.00
2017,03,26,16,41,166.40
2017,03,26,16,42,167.00
2017,03,26,16,43,167.00
2017,03,26,16,44,162.70
2017,03,26,16,45,159.00
2017,03,26,16,46,153.10
2017,03,26,16,47,147.00
2017,03,26,16,48,141.40
2017,03,26,16,49,135.90
2017,03,26,16,50,128.80
2017,03,26,16,51,121.90
2017,03,26,16,52,114.30
2017,03,26,16,53,105.90
2017,03,26,16,54,98.80
2017,03,26,16,55,93.60
2017,03,26,16,56,89.70
2017,03,26,16,57,86.90
2017,03,26,16,58,86.00
2017,03,26,16,59,86.00
2017,03,26,17,00,86.00
2017,03,26,17,01,86.10
2017,03,26,17,02,88.00
2017,03,26,17,03,88.00
2017,03,26,17,04,88.80
2017,03,26,17,05,91.50
2017,03,26,17,06,95.40
2017,03,26,17,07,100.50
2017,03,26,17,08,106.00
2017,03,26,17,09,112.40
2017,03,26,17,10,116.20
2017,03,26,17,11,118.50
2017,03,26,17,12,120.00
2017,03,26,17,13,120.00
2017,03,26,17,14,120.00
2017,03,26,17,15,118.70
2017,03,26,17,16,118.00
2017,03,26,17,17,116.30
2017,03,26,17,18,114.00
2017,03,26,17,19,113.00
2017,03,26,17,20,113.00
2017,03,26,17,21,113.40
2017,03,26,17,22,113.50
2017,03,26,17,23,111.90